This is the latest recevied weather packets stored in our database for station/object OK1VCF-8. If no packets are shown the sender has not sent any weather packets the latest 10 day(s).
| Time | Temp. | Humidity | Pressure | Rain* | Wind** | Luminosity | Snow |
|---|---|---|---|---|---|---|---|
| 1777811064 | 26.67° C | 26% | 1015.4 hPa | - | - | - | - |
| 1777810592 | 26.67° C | 24% | 1015.4 hPa | - | - | - | - |
| 1777810120 | 26.67° C | 25% | 1015.6 hPa | - | - | - | - |
| 1777809469 | 26.67° C | 26% | 1015.8 hPa | - | - | - | - |
| 1777808998 | 26.67° C | 26% | 1015.8 hPa | - | - | - | - |
| 1777808524 | 26.11° C | 27% | 1015.8 hPa | - | - | - | - |
| 1777808065 | 26.11° C | 27% | 1016 hPa | - | - | - | - |
| 1777807610 | 25.56° C | 28% | 1016.1 hPa | - | - | - | - |
| 1777807162 | 25.56° C | 26% | 1016.2 hPa | - | - | - | - |
| 1777806723 | 25.56° C | 26% | 1016.2 hPa | - | - | - | - |
| 1777806273 | 25.56° C | 26% | 1016.4 hPa | - | - | - | - |
| 1777804973 | 25.56° C | 28% | 1016.6 hPa | - | - | - | - |
| 1777804535 | 25° C | 28% | 1016.8 hPa | - | - | - | - |
| 1777804094 | 24.44° C | 26% | 1016.9 hPa | - | - | - | - |
| 1777803655 | 25.56° C | 28% | 1017 hPa | - | - | - | - |
| 1777803213 | 24.44° C | 26% | 1017 hPa | - | - | - | - |
| 1777802605 | 24.44° C | 28% | 1017.2 hPa | - | - | - | - |
| 1777802164 | 25° C | 28% | 1017.2 hPa | - | - | - | - |
| 1777801725 | 24.44° C | 27% | 1017.3 hPa | - | - | - | - |
| 1777801285 | 24.44° C | 30% | 1017.2 hPa | - | - | - | - |
| 1777800846 | 24.44° C | 27% | 1017.5 hPa | - | - | - | - |
| 1777800405 | 24.44° C | 30% | 1017.4 hPa | - | - | - | - |
| 1777799965 | 23.89° C | 30% | 1017.6 hPa | - | - | - | - |
| 1777799527 | 23.33° C | 31% | 1017.7 hPa | - | - | - | - |
| 1777799087 | 23.33° C | 32% | 1017.6 hPa | - | - | - | - |
* Rain since midnight (hover to see other rain measurements)
** Current wind speed in m/s (hover to see current wind gust speed)